Location: Unspecified
(0.0000°N, 0.0000°E)
Time: 02:22:31
(UTC+00:00)

Courier 1B Rocket - Pass Details

Date: 01 October 2020
Orbit: 920 x 1202 km, 28.2° (Epoch: 25 October)

Event Time Altitude Azimuth Distance (km) Brightness Sun altitude
Exits shadow 03:15:44 15° 27° (NNE) 2,352 7.1 -38.4°
Drops below altitude 10° 03:16:57 10° 33° (NNE) 2,704 7.6 -38.1°
Sets 03:19:48 0° 43° (NE) 3,615 8.4 -37.4°
